Station KPTV2 - 8632200 - Kiptopeke, VA Image indicating link to RSS feed of recent meteorological observations for station KPTV2


Conditions at KPTV2 as of
(11:54 pm EDT on 05/29/2024)
0354 GMT on 05/30/2024:
     

Click on the graph icon in the table below to see a time series plot of the last five days of that observation.

5-day plot - Wind Direction Wind Direction (WDIR): E ( 90 deg true )
5-day plot - Wind Speed Wind Speed (WSPD): 2.9 kts
5-day plot - Wind Gust Wind Gust (GST): 2.9 kts
5-day plot - Atmospheric Pressure Atmospheric Pressure (PRES):30.01 in
5-day plot - Air Temperature Air Temperature (ATMP): 63.9 °F
5-day plot - Water Temperature Water Temperature (WTMP): 72.7 °F
5-day plot - Wind Speed at 10 Meters Wind Speed at 10 meters (WSPD10M): 3.9 kts
5-day plot - Wind Speed at 20 Meters Wind Speed at 20 meters (WSPD20M): 3.9 kts
5-day plot -  Wind Speed, Wind Gust and Atmospheric Pressure Combined plot of Wind Speed, Gust, and Air Pressure
NOS Water Level Observation Network Water Level
Previous observations
TIME
(EDT)
5-day plot - Wind Direction
WDIR
 
5-day plot - Wind Speed
WSPD
kts
5-day plot - Wind Gust
GST
kts
5-day plot - Wave Height
WVHT
ft
5-day plot - Dominant Wave Period
DPD
sec
5-day plot - Average Wave Period
APD
sec
5-day plot - Mean Wave Direction
MWD
 
5-day plot - Atmospheric Pressure
PRES
in
5-day plot - Pressure Tendency
PTDY
in
5-day plot - Air Temperature
ATMP
°F
5-day plot - Water Temperature
WTMP
°F
5-day plot - Dew Point
DEWP
°F
5-day plot - Salinity
SAL
psu
5-day plot - Visibility
VIS
nmi
5-day plot - Tide (above MLLW)
TIDE
ft
2024-05-29 11:48 pm E 2.9 4.1----30.01- 63.3 72.5----
2024-05-29 11:42 pm E 5.1 5.1----30.00- 63.9 72.3----
2024-05-29 11:36 pm E 1.9 2.9----30.01- 65.1 72.5----
2024-05-29 11:30 pm- 0.0 2.9----30.02- 65.5 72.9----
2024-05-29 11:24 pm S 1.9 4.1----30.01- 64.9 73.0----
2024-05-29 11:18 pm SE 4.1 5.1----30.00- 65.3 73.0----
2024-05-29 11:12 pm S 2.9 5.1----30.01- 66.0 73.0----
2024-05-29 11:06 pmSSW 4.1 5.1----30.02- 65.8 73.0----
2024-05-29 11:00 pm S 4.1 6.0----30.02+0.06 64.9 73.0----
2024-05-29 10:54 pm S 4.1 5.1----30.02- 64.2 73.2----
2024-05-29 10:48 pm E 2.9 4.1----30.01- 64.6 73.2----
2024-05-29 10:42 pmENE 4.1 4.1----30.01- 64.6 73.2----
2024-05-29 10:36 pmENE 2.9 5.1----30.01- 64.6 73.2----
2024-05-29 10:30 pm NE 2.9 4.1----30.01- 64.6 73.4----
2024-05-29 10:24 pm NE 1.9 2.9----30.01- 64.8 73.4----
2024-05-29 10:18 pm NE 1.9 5.1----30.01- 65.8 73.4----
2024-05-29 10:12 pmNNE 2.9 5.1----30.01- 66.0 73.4----
2024-05-29 10:06 pmNNE 2.9 6.0----30.01- 66.0 73.4----
2024-05-29 10:00 pmENE 5.1 7.0----30.00+0.07 66.0 73.4----
2024-05-29 09:54 pmENE 6.0 9.9----29.99- 66.2 73.4----
2024-05-29 09:48 pm NE 7.0 9.9----30.00- 66.2 73.6----
2024-05-29 09:42 pm NE 5.1 8.0----29.99- 66.7 73.6----
2024-05-29 09:36 pmNNE 11.1 15.9----29.99- 66.9 73.6----
2024-05-29 09:30 pmNNE 11.1 13.0----30.00- 67.5 73.6----
2024-05-29 09:24 pmNNE 8.0 12.0----30.00- 66.6 73.8----
2024-05-29 09:18 pmENE 7.0 9.9----29.98- 66.6 73.8----
2024-05-29 09:12 pmNNE 6.0 9.9----30.00- 66.7 73.8----
2024-05-29 09:06 pm NE 8.0 9.9----29.99- 66.4 73.8----
2024-05-29 09:00 pm NE 7.0 11.1----29.99+0.06 66.2 73.8----
2024-05-29 08:54 pmNNE 8.0 11.1----29.99- 66.6 73.8----
2024-05-29 08:48 pmNNE 8.0 13.0----29.98- 66.4 73.8----
2024-05-29 08:42 pm NE 8.9 12.0----29.98- 66.6 73.8----
2024-05-29 08:36 pmNNE 9.9 13.0----29.98- 66.6 73.8----
2024-05-29 08:30 pm NE 7.0 12.0----29.98- 66.6 73.9----
2024-05-29 08:24 pmNNE 8.9 11.1----29.98- 66.9 73.9----
2024-05-29 08:18 pm NE 8.9 12.0----29.98- 66.9 73.9----
2024-05-29 08:12 pm NE 8.9 13.0----29.97- 66.9 73.9----
2024-05-29 08:06 pm NE 8.0 13.0----29.97- 67.1 73.9----
2024-05-29 08:00 pm NE 8.0 21.0----29.96+0.03 67.6 73.9----
2024-05-29 07:54 pm N 15.9 19.0----29.98- 68.0 73.9----
2024-05-29 07:48 pmNNE 14.0 19.0----29.97-- 73.9----
2024-05-29 07:42 pm N 15.0 18.1----29.96-- 73.9----
2024-05-29 07:36 pm N 17.1 20.0----29.96-- 73.8----
2024-05-29 07:30 pmESE 2.9 8.0----29.95- 71.6 73.8----
2024-05-29 07:24 pmSSE 7.0 8.9----29.94- 71.8 73.8----
2024-05-29 07:18 pm S 8.0 8.9----29.94- 71.6 73.8----
2024-05-29 07:12 pm S 8.0 8.9----29.93- 71.6 73.8----
2024-05-29 07:06 pm S 6.0 11.1----29.93- 71.4 73.8----
2024-05-29 07:00 pmSSE 11.1 13.0----29.93-0.02 71.6 73.8----
2024-05-29 06:54 pmSSE 11.1 14.0----29.93- 72.0 73.8----
2024-05-29 06:48 pmSSE 9.9 12.0----29.93- 72.1 73.8----
2024-05-29 06:42 pm S 11.1 13.0----29.93- 72.1 73.8----
2024-05-29 06:36 pmSSE 9.9 14.0----29.93- 72.0 73.9----
2024-05-29 06:30 pm S 13.0 14.0----29.93- 72.1 73.9----
2024-05-29 06:24 pmSSE 11.1 12.0----29.93- 72.3 73.9----
2024-05-29 06:18 pmSSE 11.1 13.0----29.93- 72.3 73.9----
2024-05-29 06:12 pmSSE 11.1 15.0----29.93- 72.5 73.9----
2024-05-29 06:06 pm S 13.0 15.0----29.93- 72.5 74.1----
2024-05-29 06:00 pmSSE 12.0 15.0----29.93-0.05 72.9 74.1----
2024-05-29 05:54 pm S 15.0 18.1----29.93- 72.7 74.1----
2024-05-29 05:48 pm S 15.0 17.1----29.93- 72.7 74.1----
2024-05-29 05:42 pm S 14.0 15.0----29.93- 72.7 74.1----
2024-05-29 05:36 pm S 12.0 14.0----29.93- 73.2 74.1----
2024-05-29 05:30 pm S 12.0 13.0----29.93- 73.4 74.1----
2024-05-29 05:24 pm S 12.0 14.0----29.93- 73.0 73.9----
2024-05-29 05:18 pm S 13.0 14.0----29.93- 73.0 73.9----
2024-05-29 05:12 pm S 12.0 14.0----29.93- 73.2 74.1----
2024-05-29 05:06 pmSSE 13.0 15.0----29.94- 72.7 74.1----
2024-05-29 05:00 pmSSE 12.0 14.0----29.94-0.06 73.0 74.3----
2024-05-29 04:54 pm S 13.0 14.0----29.94- 72.7 74.1----
2024-05-29 04:48 pm S 12.0 13.0----29.94-- 74.1----
2024-05-29 04:42 pm S 11.1 12.0----29.94-- 73.9----
2024-05-29 04:36 pm SE 8.9 12.0----29.95-- 73.9----
2024-05-29 04:30 pm SE 8.9 11.1----29.95- 74.5 73.9----
2024-05-29 04:24 pmSSE 8.9 9.9----29.95- 75.0 73.8----
2024-05-29 04:18 pmSSE 8.0 9.9----29.95- 75.4 73.8----
2024-05-29 04:12 pm S 7.0 9.9----29.95- 75.2 73.8----
2024-05-29 04:06 pm S 8.0 8.0----29.95- 75.2 73.9----
2024-05-29 04:00 pm S 5.1 5.1----29.95-0.06 75.7 73.9----
2024-05-29 03:54 pm S 5.1 6.0----29.95- 75.2 73.9----
2024-05-29 03:48 pm S 4.1 5.1----29.95- 74.8 73.9----
2024-05-29 03:42 pm S 5.1 5.1----29.96- 75.0 73.9----
2024-05-29 03:36 pmSSW 5.1 5.1----29.96- 74.7 73.8----
2024-05-29 03:30 pmSSW 5.1 6.0----29.96- 75.2 73.8----
2024-05-29 03:24 pmSSW 5.1 6.0----29.97- 75.4 73.8----
2024-05-29 03:18 pmSSW 5.1 6.0----29.97- 75.0 73.8----
2024-05-29 03:12 pmSSW 5.1 6.0----29.97- 75.0 73.8----
2024-05-29 03:06 pm SW 1.9 2.9----29.97- 76.3 73.8----
2024-05-29 03:00 pmWSW 1.9 2.9----29.97- 76.3 73.8----
2024-05-29 02:54 pmWSW 1.9 2.9----29.98- 75.9 73.9----
2024-05-29 02:48 pm W 1.0 1.9----29.98- 77.2 73.9----
2024-05-29 02:42 pm W 1.0 2.9----29.98- 76.8 73.9----
2024-05-29 02:36 pm W 2.9 2.9----29.99- 75.4 74.1----
2024-05-29 02:30 pm W 2.9 2.9----29.99- 75.4 74.1----
2024-05-29 02:24 pm W 2.9 2.9----29.99- 75.4 74.3----
2024-05-29 02:18 pmWNW 1.9 2.9----29.99- 75.7 74.3----
2024-05-29 02:12 pmWNW 1.9 2.9----29.99- 75.4 74.1----
2024-05-29 02:06 pm NW 2.9 2.9----30.00- 75.0 74.1----
2024-05-29 02:00 pmNNW 2.9 4.1----30.00-0.03 75.6 73.9----
2024-05-29 01:54 pmNNW 2.9 5.1----30.00- 75.4 73.9----
2024-05-29 01:48 pmNNW 5.1 5.1----30.00- 74.7 73.6----
2024-05-29 01:42 pmNNW 4.1 5.1----30.00- 74.8 73.0----
2024-05-29 01:36 pm NW 5.1 6.0----30.01- 73.9 73.0----
2024-05-29 01:30 pm NW 6.0 6.0------------
2024-05-29 01:24 pm NW 5.1 6.0------------
2024-05-29 01:18 pm NW 6.0 7.0----30.01-- 72.7----
2024-05-29 01:12 pm NW 6.0 6.0----30.01-- 72.5----
2024-05-29 01:06 pm NW 5.1 5.1----30.01-- 72.3----
2024-05-29 01:00 pm NW 5.1 5.1----30.01-0.01 73.6 72.1----
2024-05-29 12:54 pm NW 5.1 6.0----30.01- 73.6 72.0----
2024-05-29 12:48 pm NW 5.1 7.0------- 72.0----
2024-05-29 12:42 pm NW 6.0 8.0------- 72.0----
2024-05-29 12:36 pmNNW 6.0 7.0------- 72.0----
2024-05-29 12:30 pmNNW 6.0 7.0------ 73.4-----
2024-05-29 12:24 pmNNW 6.0 7.0------ 73.4-----
2024-05-29 12:18 pmNNW 7.0 8.9------------
2024-05-29 12:12 pmNNW 8.0 8.0------------
2024-05-29 12:06 pmNNW 7.0 8.0------------
2024-05-29 12:00 pmNNW 7.0 8.9------ 73.2-----
2024-05-29 11:54 amNNW 8.0 8.9------ 73.0-----
2024-05-29 11:48 amNNW 8.0 9.9----30.02-- 71.8----
2024-05-29 11:42 amNNW 8.9 9.9----30.03-- 71.8----
2024-05-29 11:36 amNNW 8.9 9.9----30.03-- 71.8----
2024-05-29 11:30 amNNW 8.9 11.1------- 71.8----
2024-05-29 11:24 amNNW 11.1 11.1------- 72.1----
2024-05-29 11:18 amNNW 11.1 12.0----30.03- 72.5 72.1----
2024-05-29 11:12 amNNW 9.9 11.1----30.03- 72.9 72.1----
2024-05-29 11:06 amNNW 9.9 11.1----30.03- 72.7 72.1----
2024-05-29 11:00 amNNW 9.9 11.1----30.03+0.06 72.9 72.1----
2024-05-29 10:54 amNNW 11.1 12.0----30.02- 72.5 72.1----
2024-05-29 10:48 amNNW 11.1 12.0----30.02-- 72.3----
2024-05-29 10:42 amNNW 9.9 11.1----30.02-- 72.3----
2024-05-29 10:36 amNNW 9.9 12.0----30.02-- 72.3----
2024-05-29 10:30 amNNW 11.1 12.0----30.02- 72.7 72.3----
2024-05-29 10:24 amNNW 11.1 12.0----30.02- 72.7 72.1----
2024-05-29 10:18 amNNW 9.9 11.1----30.02- 72.7 72.1----
2024-05-29 10:12 amNNW 11.1 11.1----30.02- 72.5 72.0----
2024-05-29 10:06 amNNW 8.9 11.1----30.02- 72.7 72.0----
2024-05-29 10:00 amNNW 9.9 11.1----30.02+0.05 72.5 72.0----
2024-05-29 09:54 amNNW 11.1 12.0----30.02- 72.5 72.0----
2024-05-29 09:48 amNNW 9.9 12.0----30.01- 72.7 72.0----
2024-05-29 09:42 amNNW 11.1 12.0----30.01- 72.5 72.0----
2024-05-29 09:36 amNNW 11.1 12.0----30.01- 72.5 72.0----
2024-05-29 09:30 amNNW 11.1 12.0----30.01- 72.7 71.8----
2024-05-29 09:24 amNNW 11.1 13.0----30.01- 72.5 71.8----
2024-05-29 09:18 amNNW 11.1 12.0----30.00- 72.7 71.8----
2024-05-29 09:12 amNNW 8.9 11.1----30.00- 72.7 71.8----
2024-05-29 09:06 am N 6.0 8.0----29.99- 73.2 71.8----
2024-05-29 09:00 am N 7.0 8.0----29.99+0.04 73.2 71.8----
2024-05-29 08:54 am N 7.0 8.9----29.99- 73.2 71.8----
2024-05-29 08:48 am N 5.1 8.0----29.98- 73.4 71.6----
2024-05-29 08:42 amNNE 5.1 7.0----29.98- 73.6 71.6----
2024-05-29 08:36 amNNE 5.1 7.0----29.98- 73.2 71.6----
2024-05-29 08:30 am N 6.0 8.0----29.98- 72.9 71.6----
2024-05-29 08:24 am N 7.0 8.9----29.97- 72.9 71.6----
2024-05-29 08:18 amNNE 5.1 6.0----29.97- 73.0 71.6----
2024-05-29 08:12 amNNE 6.0 8.0----29.97- 72.5 71.8----
2024-05-29 08:06 amNNE 6.0 7.0----29.97- 72.5 71.8----
2024-05-29 08:00 amNNE 6.0 7.0----29.97+0.03 72.3 71.8----
2024-05-29 07:54 am N 6.0 7.0----29.97- 72.3 71.8----
2024-05-29 07:48 am N 6.0 8.0----29.97-- 71.8----
2024-05-29 07:42 am N 6.0 7.0----29.97-- 71.8----
2024-05-29 07:36 am N 6.0 8.0----29.97-- 71.8----
2024-05-29 07:30 am N 6.0 8.0----29.97- 71.4 71.8----
2024-05-29 07:24 am N 7.0 8.0----29.97- 71.4 71.8----
2024-05-29 07:18 am N 5.1 8.0----29.97- 71.2 71.8----
2024-05-29 07:12 am N 7.0 8.9----29.97- 71.1 72.0----
2024-05-29 07:06 am N 8.0 11.1----29.97- 70.7 72.0----
2024-05-29 07:00 amNNE 8.0 11.1----29.97+0.04 70.5 72.0----
2024-05-29 06:54 amNNE 7.0 11.1----29.97- 70.5 72.0----
2024-05-29 06:48 am N 8.0 9.9----29.97- 70.3 72.0----
2024-05-29 06:42 am N 6.0 8.9----29.97- 70.2 72.0----
2024-05-29 06:36 am N 7.0 9.9----29.97- 70.2 72.0----
2024-05-29 06:30 am N 7.0 8.9----29.96- 70.2 72.0----
2024-05-29 06:24 am N 5.1 7.0----29.96- 69.8 72.0----
2024-05-29 06:18 amNNE 4.1 5.1----29.96- 69.1 72.0----
2024-05-29 06:12 amNNE 5.1 6.0----29.96- 68.5 72.1----
2024-05-29 06:06 amNNE 4.1 6.0----29.96- 68.4 72.1----
2024-05-29 06:00 amNNE 4.1 6.0----29.95+0.03 68.4 72.1----
2024-05-29 05:54 amNNE 5.1 6.0----29.95- 68.5 72.1----
2024-05-29 05:48 amNNE 4.1 5.1----29.95- 68.7 72.1----
2024-05-29 05:42 amNNE 4.1 6.0----29.95- 68.7 72.1----
2024-05-29 05:36 amNNE 5.1 7.0----29.94- 69.1 72.1----
2024-05-29 05:30 amNNE 5.1 7.0----29.94- 69.6 72.1----
2024-05-29 05:24 am N 6.0 7.0----29.94- 70.3 72.3----
2024-05-29 05:18 am N 6.0 8.0----29.94- 70.5 72.3----
2024-05-29 05:12 am N 7.0 8.9----29.94- 70.9 72.3----
2024-05-29 05:06 am N 7.0 9.9----29.94- 71.1 72.3----
2024-05-29 05:00 am N 8.0 9.9----29.94+0.01 71.1 72.3----
2024-05-29 04:54 am N 8.0 8.9----29.94- 71.2 72.3----
2024-05-29 04:48 am N 7.0 8.9----29.94- 71.1 72.5----
2024-05-29 04:42 am N 7.0 8.0----29.94- 71.1 72.5----
2024-05-29 04:36 am N 7.0 8.0----29.93- 71.2 72.5----
2024-05-29 04:30 am N 7.0 8.9----29.93- 71.1 72.5----
2024-05-29 04:24 am N 6.0 8.0----29.93- 70.9 72.5----
2024-05-29 04:18 am N 6.0 7.0----29.93- 70.2 72.5----
2024-05-29 04:12 amNNE 5.1 6.0----29.93- 70.0 72.5----
2024-05-29 04:06 amNNE 5.1 7.0----29.93- 69.6 72.5----
2024-05-29 04:00 amNNE 7.0 8.0----29.93- 69.6 72.7----
2024-05-29 03:54 amNNE 6.0 7.0----29.93- 69.4 72.7----
2024-05-29 03:48 amNNE 5.1 6.0----29.93- 69.1 72.7----
2024-05-29 03:42 am NE 4.1 5.1----29.93- 69.3 72.7----
2024-05-29 03:36 am NE 4.1 6.0----29.93- 69.3 72.7----
2024-05-29 03:30 amNNE 5.1 7.0----29.93- 69.4 72.7----
2024-05-29 03:24 am NE 5.1 7.0----29.93- 69.4 72.7----
2024-05-29 03:18 amNNE 5.1 7.0----29.93- 69.6 72.7----
2024-05-29 03:12 am NE 5.1 7.0----29.93- 69.6 72.7----
2024-05-29 03:06 amNNE 5.1 7.0----29.93- 70.2 72.7----
2024-05-29 03:00 am NE 5.1 8.9----29.93+0.00 70.3 72.7----
2024-05-29 02:54 am NE 6.0 8.0----29.93- 70.5 72.7----
2024-05-29 02:48 am NE 5.1 7.0----29.93- 70.7 72.7----
2024-05-29 02:42 amNNE 5.1 7.0----29.93- 70.9 72.9----
2024-05-29 02:36 amNNE 5.1 7.0----29.93- 71.2 72.9----
2024-05-29 02:30 am N 4.1 5.1----29.93- 71.1 72.9----
2024-05-29 02:24 amNNE 2.9 4.1----29.93- 70.9 72.9----
2024-05-29 02:18 amNNE 2.9 4.1----29.93- 70.7 72.9----
2024-05-29 02:12 amNNE 2.9 4.1----29.93- 71.1 72.9----
2024-05-29 02:06 am NE 1.0 2.9----29.93- 71.4 73.0----
2024-05-29 02:00 am NE 1.9 7.0----29.93+0.00 72.1 73.0----
2024-05-29 01:54 am N 7.0 8.0----29.93- 72.9 73.2----
2024-05-29 01:48 amNNW 7.0 9.9----29.93- 73.4 73.0----
2024-05-29 01:42 amNNW 6.0 13.0----29.94- 73.9 73.0----
2024-05-29 01:36 amWNW 5.1 8.0----29.94- 72.1 73.0----
2024-05-29 01:30 am W 7.0 8.0----29.94- 71.6 73.2----
2024-05-29 01:24 am W 5.1 6.0----29.94- 71.4 73.2----
2024-05-29 01:18 amSSW 5.1 7.0----29.93- 71.4 73.2----
2024-05-29 01:12 amSSW 6.0 7.0----29.93- 71.6 73.4----
2024-05-29 01:06 am S 6.0 8.0----29.93- 71.6 73.6----
2024-05-29 01:00 am--------- 71.8 73.6----
2024-05-29 12:54 am--------- 71.8 73.6----
2024-05-29 12:48 am S 8.0 8.9----29.93- 72.0-----
2024-05-29 12:42 am S 7.0 8.0----29.93- 72.0-----
2024-05-29 12:36 am S 6.0 7.0----29.93- 72.1-----
2024-05-29 12:30 am S 7.0 8.0----29.93- 72.3 73.6----
2024-05-29 12:24 amSSW 7.0 8.0----29.93- 72.5 73.6----
2024-05-29 12:18 amSSW 6.0 8.0----29.93- 72.5 73.6----
2024-05-29 12:12 amSSW 7.0 8.0----29.93- 72.5 73.6----
2024-05-29 12:06 amSSW 6.0 7.0----29.93- 72.5 73.6----
2024-05-29 12:00 amSSW 6.0 8.0----29.93+0.01 72.9 73.6----
2024-05-28 11:54 pmSSW 7.0 8.0----29.93- 72.7 73.4----